Regional Weather Roundup
Issued by NWS Kansas City/Pleasant Hill, MO

Home | Current Version | Previous Version | Graphics & Text | Print | Product List | Glossary Off
Versions: 1 2 3 4 5 6 7 8 9 10 11 12 13 14 15 16 17 18 19 20 21 22 23 24 25 26 27 28 29 30 31 32 33 34 35 36 37 38 39 40 41 42 43 44 45 46 47 48 49 50

000
ASUS43 KEAX 271410
RWREAX

WEATHER ROUNDUP FOR EASTERN KANSAS AND NORTHWEST MISSOURI
NATIONAL WEATHER SERVICE KANSAS CITY/PLEASANT HILL MO
900 AM CDT THU AUG 27 2015

KSZ040-057-103>105-MOZ028-029-037-043-271500-
...KANSAS CITY METROPOLITAN AREA...

CITY           SKY/WX    TMP DP  RH WIND       PRES   REMARKS
K.C. INTL      CLOUDY    67  57  70 S12       30.09S
K.C. DOWNTOWN  TSTM      67  60  78 S12       30.10R
LEES SUMMIT    CLOUDY    68  56  65 S10       30.10F
OLATHE - IXD   CLOUDY    64  62  93 S12       30.08F
OLATHE - OJC   TSTM      62  61  96 S16       30.07F
LAWRENCE       PTSUNNY   68  62  81 S12       30.07F

$$

MOZ001>008-011>017-020>025-030>033-038>040-044>046-053-054-271500-
...NORTHERN AND CENTRAL MISSOURI...

CITY           SKY/WX    TMP DP  RH WIND       PRES   REMARKS
ST. JOSEPH     MOSUNNY   69  57  65 S7        30.07S
MOSBY          MOSUNNY   64  55  72 CALM      30.10S
WARRENSBURG    MOSUNNY   64  57  77 S6        30.10F
WHITEMAN AFB   MOSUNNY   67  57  69 S9        30.10F
CLINTON          N/A     68  59  73 S8        30.12F
SEDALIA        MOSUNNY   66  59  78 S10       30.15R
WARSAW         NOT AVBL
CHILLICOTHE      N/A     65  58  78 SE7       30.11F
KIRKSVILLE     MOSUNNY   63  58  83 SE9       30.14F

$$

MOZ041-047>049-056>058-063>065-088>090-097-271500-
...EASTERN AND SOUTHERN MISSOURI...

CITY           SKY/WX    TMP DP  RH WIND       PRES   REMARKS
ST. LOUIS INTL MOSUNNY   65  57  75 E5        30.18R
SPIRIT OF STL  SUNNY     65  59  81 CALM      30.17R
COLUMBIA       SUNNY     64  59  83 SE8       30.15F
JEFFERSON CITY SUNNY     63  58  83 SE7       30.15S
ROLLA          SUNNY     64  57  78 SE8       30.16R
OSAGE BEACH    SUNNY     63  55  77 SE5       30.16F
SPRINGFIELD    MOSUNNY   68  56  65 S13       30.14S
BRANSON        SUNNY     66  59  77 SE5       30.17R
JOPLIN         CLOUDY    67  63  87 S6        30.14R
WEST PLAINS    SUNNY     65  56  72 E7        30.19R

$$

IAZ060-094-KSZ022-034>040-054-083-096-NEZ052-066-093-271500-
...KANSAS...SOUTHEAST NEBRASKA AND IOWA...

CITY           SKY/WX    TMP DP  RH WIND       PRES   REMARKS
TOPEKA         MOSUNNY   70  64  81 SE12      30.06S
MANHATTAN      MOSUNNY   75  64  68 S8        30.00F
EMPORIA        PTSUNNY   71  64  78 S15G24    30.05F
CHANUTE        CLOUDY    66  64  93 SE12      30.10R THUNDER
WICHITA        PTSUNNY   76  67  73 S10       30.02S
OMAHA          CLOUDY    66  58  75 SE20      30.00F
LINCOLN        PTSUNNY   67  62  84 SE13      30.01F
FALLS CITY     MOSUNNY   67  59  75 SE9       30.03S
LAMONI         PTSUNNY   64  56  75 S7        30.10F
DES MOINES     CLOUDY    64  55  72 S9        30.09F

$$




USA.gov is the U.S. government's official web portal to all federal, state and local government web resources and services.